User: anonymous   Login
Location: Cronhütte
(48.9135°N, 9.6869°E)
Time: 23:01:23
(UTC+00:00)
Language:

Cosmos 1745 Rocket - Orbit

View from above orbital plane
View from above orbital plane
View from above satellite
View from above satellite

Ground track
Ground track

The orbit data is extracted from the following two-line orbital elements,

1 16728U 86037B   24204.43480128  .00000124  00000-0  10972-3 0  9999
2 16728  82.9529 214.9733 0031605 147.5256 322.3437 13.76932149917001
Epoch (UTC): 22 July 2024 10:26:06
Eccentricity: 0.0031605
inclination: 82.9529°
perigee height: 951 km
apogee height: 998 km
right ascension of ascending node: 214.9733°
argument of perigee: 147.5256°
revolutions per day: 13.76932149
mean anomaly at epoch: 322.3437°
orbit number at epoch: 91700

The dashed part of the orbit path shows where the satellite is in the earth's shadow,  

DLR